When you browse on this site, cookies collect data to enhance your experience and personalize the content and advertising you see.
Visit our Privacy Policy to learn more. By continuing to use the site, you agree to this use of cookies and data.
  • In Österreich
  • Länderverzeichnis
  • Für 7 Tage
  • Wassertemperatur
  • Wetterkarte
  • News
  • Widgets
  • user-avatar
    Anmelden

    Stündliche Wetter Tschachansur

    Heute, 29 Februar, Samstag

    Zeit Temperatur Niederschläge Wind Luftdruck Luftfeuchtigkeit
    00:00 +13°C° 0 mm 2 m/S 719 mmHg 45%
    01:00 +13°C° 0 mm 2 m/S 719 mmHg 46%
    02:00 +13°C° 0 mm 2 m/S 719 mmHg 47%
    03:00 +12°C° 0 mm 2 m/S 718 mmHg 49%
    04:00 +12°C° 0 mm 2 m/S 718 mmHg 51%
    05:00 +12°C° 0 mm 1 m/S 718 mmHg 51%
    06:00 +12°C° 0 mm 1 m/S 719 mmHg 52%
    07:00 +12°C° 0 mm 1 m/S 719 mmHg 53%
    08:00 +14°C° 0 mm 1 m/S 719 mmHg 48%
    09:00 +15°C° 0 mm 1 m/S 719 mmHg 43%
    10:00 +18°C° 0 mm 1 m/S 720 mmHg 38%
    11:00 +19°C° 0 mm 1 m/S 719 mmHg 36%
    12:00 +20°C° 0 mm 1 m/S 719 mmHg 33%
    13:00 +21°C° 0 mm 1 m/S 719 mmHg 31%
    14:00 +21°C° 0 mm 1 m/S 718 mmHg 30%
    15:00 +21°C° 0 mm 1 m/S 718 mmHg 28%
    16:00 +22°C° 0 mm 1 m/S 717 mmHg 27%
    17:00 +21°C° 0 mm 1 m/S 717 mmHg 30%
    18:00 +20°C° 0 mm 1 m/S 718 mmHg 32%
    19:00 +20°C° 0 mm 1 m/S 718 mmHg 34%
    20:00 +19°C° 0 mm 1 m/S 718 mmHg 36%
    21:00 +18°C° 0 mm 1 m/S 718 mmHg 37%
    22:00 +18°C° 0 mm 1 m/S 718 mmHg 38%
    23:00 +16°C° 0 mm 1 m/S 718 mmHg 39%

    Morgen, 1 März, Sonntag

    Zeit Temperatur Niederschläge Wind Luftdruck Luftfeuchtigkeit
    00:00 +16°C° 0 mm 1 m/S 718 mmHg 40%
    01:00 +15°C° 0 mm 1 m/S 718 mmHg 40%
    02:00 +15°C° 0 mm 1 m/S 718 mmHg 40%
    03:00 +15°C° 0 mm 1 m/S 717 mmHg 40%
    04:00 +15°C° 0 mm 2 m/S 717 mmHg 40%
    05:00 +15°C° 0 mm 2 m/S 718 mmHg 39%
    06:00 +15°C° 0 mm 2 m/S 718 mmHg 38%
    07:00 +15°C° 0 mm 2 m/S 718 mmHg 38%
    08:00 +17°C° 0 mm 2 m/S 719 mmHg 34%
    09:00 +19°C° 0 mm 2 m/S 719 mmHg 30%
    10:00 +21°C° 0 mm 2 m/S 720 mmHg 26%
    11:00 +23°C° 0 mm 2 m/S 719 mmHg 24%
    12:00 +24°C° 0 mm 2 m/S 719 mmHg 21%
    13:00 +25°C° 0 mm 1 m/S 719 mmHg 18%
    14:00 +26°C° 0 mm 1 m/S 718 mmHg 17%
    15:00 +26°C° 0 mm 1 m/S 718 mmHg 16%
    16:00 +26°C° 0 mm 1 m/S 717 mmHg 16%
    17:00 +25°C° 0 mm 1 m/S 717 mmHg 18%
    18:00 +24°C° 0 mm 1 m/S 718 mmHg 21%
    19:00 +20°C° 0 mm 0 m/S 718 mmHg 23%
    20:00 +22°C° 0 mm 1 m/S 718 mmHg 23%
    21:00 +21°C° 0 mm 2 m/S 718 mmHg 23%
    22:00 +20°C° 0 mm 2 m/S 718 mmHg 23%
    23:00 +20°C° 0 mm 2 m/S 718 mmHg 24%

    übermorgen, 2 März, Montag

    Zeit Temperatur Niederschläge Wind Luftdruck Luftfeuchtigkeit
    00:00 +19°C° 0 mm 2 m/S 718 mmHg 25%
    01:00 +18°C° 0 mm 2 m/S 718 mmHg 25%
    02:00 +18°C° 0 mm 2 m/S 717 mmHg 26%
    03:00 +18°C° 0 mm 3 m/S 717 mmHg 28%
    04:00 +17°C° 0 mm 3 m/S 717 mmHg 29%
    05:00 +17°C° 0 mm 3 m/S 717 mmHg 29%
    06:00 +17°C° 0 mm 3 m/S 717 mmHg 30%
    07:00 +17°C° 0 mm 3 m/S 717 mmHg 31%
    08:00 +19°C° 0 mm 3 m/S 718 mmHg 27%
    09:00 +21°C° 0 mm 3 m/S 718 mmHg 23%
    10:00 +24°C° 0 mm 3 m/S 719 mmHg 18%
    11:00 +26°C° 0 mm 2 m/S 718 mmHg 17%
    12:00 +27°C° 0 mm 2 m/S 717 mmHg 15%
    13:00 +28°C° 0 mm 2 m/S 717 mmHg 13%
    14:00 +28°C° 0 mm 2 m/S 716 mmHg 13%
    15:00 +29°C° 0 mm 2 m/S 716 mmHg 12%
    16:00 +29°C° 0 mm 2 m/S 715 mmHg 12%
    17:00 +28°C° 0 mm 2 m/S 715 mmHg 14%
    18:00 +27°C° 0 mm 2 m/S 715 mmHg 15%
    19:00 +25°C° 0 mm 2 m/S 715 mmHg 17%
    20:00 +25°C° 0 mm 3 m/S 715 mmHg 17%
    21:00 +23°C° 0 mm 4 m/S 715 mmHg 18%
    22:00 +23°C° 0 mm 4 m/S 715 mmHg 19%
    23:00 +22°C° 0 mm 4 m/S 714 mmHg 20%

    3 März, Dienstag

    Zeit Temperatur Niederschläge Wind Luftdruck Luftfeuchtigkeit
    00:00 +22°C° 0 mm 4 m/S 714 mmHg 21%
    01:00 +21°C° 0 mm 4 m/S 714 mmHg 22%
    02:00 +20°C° 0 mm 3 m/S 713 mmHg 25%
    03:00 +20°C° 0 mm 3 m/S 713 mmHg 27%
    04:00 +19°C° 0 mm 3 m/S 713 mmHg 30%
    05:00 +19°C° 0 mm 3 m/S 713 mmHg 31%
    06:00 +19°C° 0 mm 3 m/S 714 mmHg 32%
    07:00 +19°C° 0 mm 4 m/S 714 mmHg 32%
    08:00 +20°C° 0 mm 4 m/S 715 mmHg 30%
    09:00 +21°C° 0 mm 5 m/S 715 mmHg 27%
    10:00 +23°C° 0 mm 6 m/S 716 mmHg 24%
    11:00 +24°C° 0 mm 6 m/S 716 mmHg 22%
    12:00 +26°C° 0 mm 7 m/S 715 mmHg 21%
    13:00 +27°C° 0 mm 7 m/S 715 mmHg 20%
    14:00 +27°C° 0 mm 7 m/S 715 mmHg 19%
    15:00 +27°C° 0 mm 7 m/S 714 mmHg 19%
    16:00 +26°C° 0 mm 7 m/S 714 mmHg 19%
    17:00 +24°C° 0 mm 7 m/S 714 mmHg 23%
    18:00 +22°C° 0 mm 6 m/S 715 mmHg 26%
    19:00 +21°C° 0 mm 6 m/S 715 mmHg 30%
    20:00 +20°C° 0 mm 6 m/S 715 mmHg 32%
    21:00 +18°C° 0 mm 7 m/S 716 mmHg 35%
    22:00 +17°C° 0 mm 8 m/S 716 mmHg 38%
    23:00 +16°C° 0 mm 8 m/S 716 mmHg 40%

    4 März, Mittwoch

    Zeit Temperatur Niederschläge Wind Luftdruck Luftfeuchtigkeit
    00:00 +15°C° 0 mm 8 m/S 716 mmHg 43%
    01:00 +13°C° 0 mm 8 m/S 716 mmHg 45%
    02:00 +12°C° 0 mm 8 m/S 716 mmHg 47%
    03:00 +12°C° 0 mm 8 m/S 716 mmHg 49%
    04:00 +11°C° 0 mm 8 m/S 716 mmHg 51%
    05:00 +10°C° 0 mm 9 m/S 717 mmHg 52%
    06:00 +8°C° 0 mm 9 m/S 717 mmHg 54%
    07:00 +8°C° 0 mm 9 m/S 718 mmHg 55%
    08:00 +10°C° 0 mm 9 m/S 718 mmHg 49%
    09:00 +11°C° 0 mm 9 m/S 718 mmHg 43%
    10:00 +13°C° 0 mm 10 m/S 719 mmHg 38%
    11:00 +14°C° 0 mm 10 m/S 718 mmHg 34%
    12:00 +16°C° 0 mm 10 m/S 718 mmHg 31%
    13:00 +17°C° 0 mm 10 m/S 717 mmHg 28%
    14:00 +16°C° 0 mm 10 m/S 717 mmHg 28%
    15:00 +16°C° 0 mm 10 m/S 717 mmHg 28%
    16:00 +16°C° 0 mm 10 m/S 716 mmHg 28%
    17:00 +14°C° 0 mm 10 m/S 716 mmHg 30%
    18:00 +13°C° 0 mm 9 m/S 717 mmHg 33%
    19:00 +12°C° 0 mm 9 m/S 717 mmHg 35%
    20:00 +11°C° 0 mm 9 m/S 717 mmHg 36%
    21:00 +11°C° 0 mm 9 m/S 718 mmHg 37%
    22:00 +10°C° 0 mm 9 m/S 718 mmHg 38%
    23:00 +10°C° 0 mm 9 m/S 718 mmHg 39%

    5 März, Donnerstag

    Zeit Temperatur Niederschläge Wind Luftdruck Luftfeuchtigkeit
    00:00 +8°C° 0 mm 10 m/S 718 mmHg 40%
    01:00 +8°C° 0 mm 10 m/S 718 mmHg 41%
    02:00 +7°C° 0 mm 10 m/S 718 mmHg 42%
    03:00 +7°C° 0 mm 10 m/S 717 mmHg 43%
    04:00 +6°C° 0 mm 11 m/S 717 mmHg 44%
    05:00 +6°C° 0 mm 11 m/S 718 mmHg 45%
    06:00 +4°C° 0 mm 11 m/S 718 mmHg 47%
    07:00 +4°C° 0 mm 11 m/S 718 mmHg 49%
    08:00 +6°C° 0 mm 11 m/S 719 mmHg 43%
    09:00 +8°C° 0 mm 11 m/S 719 mmHg 37%
    10:00 +9°C° 0 mm 12 m/S 719 mmHg 32%
    11:00 +10°C° 0 mm 12 m/S 719 mmHg 30%
    12:00 +12°C° 0 mm 12 m/S 718 mmHg 27%
    13:00 +13°C° 0 mm 13 m/S 718 mmHg 25%
    14:00 +13°C° 0 mm 13 m/S 717 mmHg 24%
    15:00 +13°C° 0 mm 12 m/S 717 mmHg 24%
    16:00 +13°C° 0 mm 12 m/S 716 mmHg 23%
    17:00 +12°C° 0 mm 11 m/S 716 mmHg 25%
    18:00 +11°C° 0 mm 10 m/S 717 mmHg 27%
    19:00 +10°C° 0 mm 9 m/S 717 mmHg 29%
    20:00 +10°C° 0 mm 9 m/S 717 mmHg 31%
    21:00 +8°C° 0 mm 9 m/S 718 mmHg 32%
    22:00 +8°C° 0 mm 9 m/S 718 mmHg 34%
    23:00 +7°C° 0 mm 9 m/S 718 mmHg 34%
    Mehr zeigen